Hourly Weather Bolvadin

Today, 31 July, Saturday

Time Temperature Precipitation Wind Pressure Humidity
00:00 +24°C° 0 mm 3 mps 675 mmHg 39%
01:00 +23°C° 0 mm 2 mps 675 mmHg 41%
02:00 +23°C° 0 mm 2 mps 675 mmHg 43%
03:00 +21°C° 0 mm 2 mps 675 mmHg 45%
04:00 +21°C° 0 mm 2 mps 675 mmHg 47%
05:00 +21°C° 0 mm 1 mps 675 mmHg 49%
06:00 +23°C° 0 mm 2 mps 675 mmHg 44%
07:00 +25°C° 0 mm 2 mps 676 mmHg 38%
08:00 +27°C° 0 mm 3 mps 676 mmHg 33%
09:00 +28°C° 0 mm 4 mps 676 mmHg 29%
10:00 +30°C° 0 mm 5 mps 676 mmHg 25%
11:00 +32°C° 0 mm 6 mps 676 mmHg 21%
12:00 +33°C° 0 mm 6 mps 676 mmHg 20%
13:00 +33°C° 0 mm 6 mps 676 mmHg 19%
14:00 +34°C° 0 mm 6 mps 676 mmHg 18%
15:00 +34°C° 0 mm 6 mps 676 mmHg 19%
16:00 +34°C° 0 mm 5 mps 676 mmHg 19%
17:00 +34°C° 0 mm 5 mps 675 mmHg 20%
18:00 +32°C° 0 mm 5 mps 675 mmHg 23%
19:00 +30°C° 0 mm 5 mps 675 mmHg 27%
20:00 +28°C° 0 mm 5 mps 675 mmHg 31%
21:00 +27°C° 0 mm 4 mps 675 mmHg 34%
22:00 +26°C° 0 mm 3 mps 676 mmHg 37%
23:00 +24°C° 0 mm 2 mps 676 mmHg 39%

Tomorrow, 1 August, Sunday

Time Temperature Precipitation Wind Pressure Humidity
00:00 +24°C° 0 mm 2 mps 675 mmHg 41%
01:00 +23°C° 0 mm 2 mps 675 mmHg 43%
02:00 +22°C° 0 mm 1 mps 675 mmHg 45%
03:00 +22°C° 0 mm 1 mps 675 mmHg 47%
04:00 +21°C° 0 mm 1 mps 675 mmHg 50%
05:00 +21°C° 0 mm 1 mps 675 mmHg 52%
06:00 +23°C° 0 mm 1 mps 675 mmHg 47%
07:00 +24°C° 0 mm 1 mps 676 mmHg 42%
08:00 +26°C° 0 mm 1 mps 676 mmHg 37%
09:00 +28°C° 0 mm 2 mps 676 mmHg 32%
10:00 +29°C° 0 mm 2 mps 676 mmHg 26%
11:00 +31°C° 0 mm 2 mps 677 mmHg 21%
12:00 +33°C° 0 mm 3 mps 676 mmHg 19%
13:00 +34°C° 0 mm 3 mps 676 mmHg 17%
14:00 +35°C° 0 mm 4 mps 676 mmHg 15%
15:00 +34°C° 0 mm 4 mps 676 mmHg 15%
16:00 +34°C° 0 mm 5 mps 676 mmHg 15%
17:00 +34°C° 0 mm 5 mps 676 mmHg 15%
18:00 +32°C° 0 mm 5 mps 676 mmHg 18%
19:00 +29°C° 0 mm 4 mps 676 mmHg 22%
20:00 +27°C° 0 mm 4 mps 676 mmHg 26%
21:00 +26°C° 0 mm 3 mps 675 mmHg 29%
22:00 +25°C° 0 mm 2 mps 675 mmHg 32%
23:00 +24°C° 0 mm 2 mps 675 mmHg 35%

Day after tomorrow, 2 August, Monday

Time Temperature Precipitation Wind Pressure Humidity
00:00 +23°C° 0 mm 2 mps 675 mmHg 37%
01:00 +21°C° 0 mm 2 mps 675 mmHg 39%
02:00 +21°C° 0 mm 2 mps 675 mmHg 41%
03:00 +21°C° 0 mm 1 mps 675 mmHg 43%
04:00 +21°C° 0 mm 1 mps 675 mmHg 45%
05:00 +20°C° 0 mm 1 mps 675 mmHg 47%
06:00 +22°C° 0 mm 1 mps 676 mmHg 43%
07:00 +24°C° 0 mm 1 mps 676 mmHg 40%
08:00 +26°C° 0 mm 1 mps 677 mmHg 36%
09:00 +27°C° 0 mm 2 mps 677 mmHg 33%
10:00 +29°C° 0 mm 2 mps 677 mmHg 29%
11:00 +31°C° 0 mm 3 mps 677 mmHg 26%
12:00 +33°C° 0 mm 3 mps 677 mmHg 23%
13:00 +34°C° 0 mm 4 mps 677 mmHg 21%
14:00 +35°C° 0 mm 4 mps 677 mmHg 18%
15:00 +35°C° 0 mm 4 mps 676 mmHg 17%
16:00 +35°C° 0 mm 5 mps 676 mmHg 16%
17:00 +35°C° 0 mm 5 mps 676 mmHg 15%
18:00 +33°C° 0 mm 4 mps 676 mmHg 18%
19:00 +30°C° 0 mm 3 mps 676 mmHg 20%
20:00 +27°C° 0 mm 2 mps 676 mmHg 23%
21:00 +27°C° 0 mm 2 mps 676 mmHg 25%
22:00 +26°C° 0 mm 2 mps 676 mmHg 27%
23:00 +25°C° 0 mm 2 mps 676 mmHg 29%

3 August, Tuesday

Time Temperature Precipitation Wind Pressure Humidity
00:00 +24°C° 0 mm 2 mps 676 mmHg 30%
01:00 +24°C° 0 mm 2 mps 676 mmHg 31%
02:00 +23°C° 0 mm 2 mps 676 mmHg 31%
03:00 +23°C° 0 mm 1 mps 676 mmHg 33%
04:00 +22°C° 0 mm 1 mps 676 mmHg 34%
05:00 +21°C° 0 mm 1 mps 676 mmHg 35%
06:00 +24°C° 0 mm 1 mps 677 mmHg 33%
07:00 +26°C° 0 mm 1 mps 677 mmHg 30%
08:00 +28°C° 0 mm 1 mps 678 mmHg 27%
09:00 +30°C° 0 mm 2 mps 678 mmHg 24%
10:00 +32°C° 0 mm 2 mps 678 mmHg 20%
11:00 +35°C° 0 mm 3 mps 678 mmHg 17%
12:00 +36°C° 0 mm 4 mps 678 mmHg 15%
13:00 +37°C° 0 mm 5 mps 678 mmHg 14%
14:00 +39°C° 0 mm 6 mps 678 mmHg 13%
15:00 +38°C° 0 mm 6 mps 678 mmHg 13%
16:00 +38°C° 0 mm 6 mps 677 mmHg 13%
17:00 +38°C° 0 mm 6 mps 677 mmHg 13%
18:00 +35°C° 0 mm 5 mps 677 mmHg 16%
19:00 +33°C° 0 mm 5 mps 677 mmHg 19%
20:00 +30°C° 0 mm 5 mps 677 mmHg 22%
21:00 +29°C° 0 mm 4 mps 677 mmHg 24%
22:00 +28°C° 0 mm 3 mps 677 mmHg 27%
23:00 +27°C° 0 mm 2 mps 678 mmHg 29%

4 August, Wednesday

Time Temperature Precipitation Wind Pressure Humidity
00:00 +26°C° 0 mm 2 mps 678 mmHg 31%
01:00 +26°C° 0 mm 2 mps 678 mmHg 32%
02:00 +25°C° 0 mm 2 mps 677 mmHg 34%
03:00 +24°C° 0 mm 1 mps 677 mmHg 35%
04:00 +24°C° 0 mm 1 mps 677 mmHg 37%
05:00 +23°C° 0 mm 1 mps 677 mmHg 39%
06:00 +25°C° 0 mm 1 mps 678 mmHg 35%
07:00 +27°C° 0 mm 1 mps 678 mmHg 32%
08:00 +29°C° 0 mm 1 mps 679 mmHg 28%
09:00 +31°C° 0 mm 1 mps 679 mmHg 25%
10:00 +32°C° 0 mm 2 mps 679 mmHg 22%
11:00 +35°C° 0 mm 2 mps 679 mmHg 19%
12:00 +35°C° 0 mm 2 mps 679 mmHg 17%
13:00 +36°C° 0 mm 2 mps 678 mmHg 16%
14:00 +37°C° 0 mm 2 mps 678 mmHg 14%
15:00 +37°C° 0 mm 2 mps 678 mmHg 14%
16:00 +37°C° 0 mm 2 mps 678 mmHg 13%
17:00 +37°C° 0 mm 3 mps 677 mmHg 13%
18:00 +35°C° 0 mm 3 mps 677 mmHg 16%
19:00 +33°C° 0 mm 3 mps 677 mmHg 20%
20:00 +29°C° 0 mm 2 mps 677 mmHg 23%
21:00 +29°C° 0 mm 2 mps 677 mmHg 26%
22:00 +28°C° 0 mm 2 mps 677 mmHg 29%
23:00 +27°C° 0 mm 1 mps 677 mmHg 32%

5 August, Thursday

Time Temperature Precipitation Wind Pressure Humidity
00:00 +26°C° 0 mm 1 mps 676 mmHg 33%
01:00 +25°C° 0 mm 1 mps 676 mmHg 34%
02:00 +25°C° 0 mm 1 mps 676 mmHg 36%
03:00 +24°C° 0 mm 1 mps 676 mmHg 36%
04:00 +24°C° 0 mm 1 mps 676 mmHg 36%
05:00 +23°C° 0 mm 1 mps 676 mmHg 37%
06:00 +23°C° 0 mm 0 mps 676 mmHg 33%
07:00 +26°C° 0 mm 0 mps 677 mmHg 29%
08:00 +28°C° 0 mm 0 mps 677 mmHg 25%
09:00 +30°C° 0 mm 0 mps 677 mmHg 21%
10:00 +33°C° 0 mm 1 mps 677 mmHg 18%
11:00 +35°C° 0 mm 1 mps 677 mmHg 15%
12:00 +36°C° 0 mm 1 mps 677 mmHg 14%
13:00 +38°C° 0 mm 2 mps 677 mmHg 12%
14:00 +38°C° 0 mm 2 mps 676 mmHg 11%
15:00 +38°C° 0 mm 2 mps 676 mmHg 11%
16:00 +38°C° 0 mm 2 mps 675 mmHg 10%
17:00 +37°C° 0 mm 1 mps 675 mmHg 10%
18:00 +36°C° 0 mm 2 mps 675 mmHg 12%
19:00 +34°C° 0 mm 2 mps 674 mmHg 14%
20:00 +31°C° 0 mm 2 mps 674 mmHg 16%
21:00 +30°C° 0 mm 2 mps 674 mmHg 17%
22:00 +29°C° 0 mm 2 mps 673 mmHg 18%
23:00 +29°C° 0 mm 1 mps 673 mmHg 19%
Show more

We Need Your Consent

Meteoprog and our Service Providers may store and access personal data such as cookies, device identifiers or other similar technologies on your device and process such data to personalise content and ads, as well as provide social media features and to analyse the traffic.

  • Store and/or access information on your device

    Cookies, device identifiers or other information can be stored or accessed on your device for the purposes indicated above.

  • Personalised ads and content, ad and content measurement, audience insights, and products development

    Ads and content can be personalised based on a profile. More data can be added to better personalise ads and content. Ad and content performance can be measured. Insights about the audience who saw the ads and content can be derived. Such data can be used to develop or improve user’s experience, systems and software.

By clicking ‘I Agree’ you will allow the use of indicated cookies, device identifiers, web beacons or other similar technologies. Your settings can be changed in the browser on your device.

For certain purposes, legitimate interests may be relied on, rather than consent. You can read more about this in our Privacy and Cookie Policy.